Weather History for KVYS - November, 2011

Change the Weather History Date:

Thursday, November 24, 2011

  Actual Average Record
Temperature  
Mean Temperature 48 °F -  
Max Temperature 53 °F 44 °F 69 °F (1966)
Min Temperature 43 °F 26 °F 10 °F (2013)
Degree Days  
Heating Degree Days 17    
Moisture  
Dew Point 43 °F    
Average Humidity 87    
Maximum Humidity 93    
Minimum Humidity 77    
Precipitation  
Precipitation 0.00 in - - ()
Sea Level Pressure  
Sea Level Pressure 30.17 in    
Wind  
Wind Speed 13 mph (SSW)    
Max Wind Speed 20 mph    
Max Gust Speed 25 mph    
Visibility 5 miles    
Events      
Averages and records for this station are not official NWS values.
T = Trace of Precipitation, MM = Missing Value Source: NWS Daily Summary

Daily Weather History Graph

Daily Weather History Graph

Search for Another Location

Airport or City:

Trip Planner

Search our weather history database for the weather conditions in past years. The results will help you decide how hot, cold, wet, or windy it might be!

Date:

Astronomy

Nov. 24, 2011 Rise Set
Actual Time 6:55 AM CST 4:30 PM CST
Civil Twilight 6:24 AM CST 5:01 PM CST
Nautical Twilight 5:50 AM CST 5:35 PM CST
Astronomical Twilight 5:17 AM CST 6:08 PM CST
Moon 6:13 AM CST (11/24) 4:01 PM CST (11/24)
Length of Visible Light 10h 36m
Length of Day
9h 35m
Waning Crescent, 0% of the Moon is Illuminated
Nov 24
Waning Crescent
Nov 25
New
Dec 2
First Quarter
Dec 10
Full
Dec 17
Last Quarter

Hourly Weather History & Observations

Time (CST) Temp. Windchill Dew Point Humidity Pressure Visibility Wind Dir Wind Speed Gust Speed Precip Events Conditions
12:15 AM 44.6 °F 39.2 °F 41.4 °F 88% 30.23 in 3.0 mi SW 10.4 mph - N/A   Overcast
12:35 AM 44.6 °F 39.2 °F 41.4 °F 88% 30.23 in 3.0 mi SW 10.4 mph - N/A   Overcast
12:55 AM 44.6 °F 39.7 °F 41.4 °F 88% 30.22 in 3.0 mi SW 9.2 mph - N/A   Overcast
1:15 AM 44.2 °F 37.6 °F 41.4 °F 90% 30.21 in 3.0 mi SW 13.8 mph 17.3 mph N/A   Overcast
1:35 AM 43.7 °F 37.7 °F 41.0 °F 90% 30.23 in 3.0 mi SW 11.5 mph - N/A   Overcast
1:55 AM 43.2 °F 37.0 °F 41.0 °F 92% 30.23 in 2.5 mi SW 11.5 mph - N/A   Overcast
2:15 AM 43.2 °F 35.9 °F 41.0 °F 92% 30.23 in 3.0 mi SW 15.0 mph - N/A   Overcast
2:35 AM 43.0 °F 37.2 °F 40.6 °F 91% 30.24 in 4.0 mi WSW 10.4 mph - N/A   Overcast
3:15 AM 43.0 °F 36.4 °F 40.6 °F 91% 30.23 in 4.0 mi SW 12.7 mph - N/A   Overcast
3:35 AM 43.0 °F 36.4 °F 40.6 °F 91% 30.23 in 4.0 mi SW 12.7 mph - N/A   Overcast
3:55 AM 43.0 °F 38.2 °F 40.6 °F 91% 30.23 in 5.0 mi SW 8.1 mph - N/A   Overcast
4:15 AM 43.0 °F 37.7 °F 40.6 °F 91% 30.22 in 5.0 mi SW 9.2 mph - N/A   Overcast
4:35 AM 43.0 °F 35.7 °F 40.6 °F 91% 30.22 in 5.0 mi SW 15.0 mph - N/A   Overcast
4:55 AM 43.0 °F 36.4 °F 40.5 °F 91% 30.22 in 5.0 mi SW 12.7 mph - N/A   Overcast
5:15 AM 43.0 °F 37.7 °F 40.5 °F 91% 30.22 in 4.0 mi SW 9.2 mph - N/A   Overcast
5:35 AM 43.0 °F 36.0 °F 40.5 °F 91% 30.22 in 3.0 mi SSW 13.8 mph - N/A   Overcast
5:55 AM 43.0 °F 37.7 °F 40.6 °F 91% 30.22 in 4.0 mi SSW 9.2 mph - N/A   Overcast
6:15 AM 43.2 °F 37.9 °F 40.6 °F 91% 30.23 in 3.0 mi SSW 9.2 mph - N/A   Overcast
6:35 AM 43.7 °F 38.1 °F 41.0 °F 90% 30.23 in 4.0 mi SW 10.4 mph - N/A   Overcast
6:55 AM 43.7 °F 39.1 °F 41.0 °F 90% 30.23 in 3.0 mi South 8.1 mph - N/A   Overcast
7:15 AM 44.6 °F 38.4 °F 41.0 °F 87% 30.22 in 3.0 mi SSW 12.7 mph - N/A   Overcast
7:35 AM 44.2 °F 37.6 °F 41.9 °F 91% 30.21 in 2.0 mi South 13.8 mph - N/A   Overcast
7:55 AM 44.2 °F 37.6 °F 41.9 °F 91% 30.22 in 2.0 mi South 13.8 mph 19.6 mph N/A   Overcast
8:15 AM 44.2 °F 38.0 °F 41.9 °F 91% 30.21 in 2.0 mi South 12.7 mph - N/A   Overcast
8:35 AM 44.2 °F 37.6 °F 41.5 °F 90% 30.22 in 2.5 mi SSW 13.8 mph - N/A   Overcast
8:55 AM 44.6 °F 37.4 °F 41.9 °F 90% 30.22 in 2.5 mi SSW 16.1 mph - N/A   Overcast
9:15 AM 44.6 °F 37.4 °F 42.8 °F 93% 30.21 in 2.5 mi South 16.1 mph 20.7 mph N/A   Overcast
9:35 AM 45.5 °F 38.3 °F 42.8 °F 90% 30.21 in 2.5 mi SSW 17.3 mph - N/A   Overcast
9:55 AM 45.5 °F 38.9 °F 42.6 °F 90% 30.20 in 3.0 mi SSW 15.0 mph - N/A   Overcast
10:15 AM 46.4 °F 39.8 °F 42.8 °F 87% 30.21 in 3.0 mi SSW 16.1 mph - N/A   Overcast
10:35 AM 46.8 °F - 43.2 °F 87% 30.21 in 4.0 mi South 15.0 mph - N/A   Overcast
10:55 AM 46.9 °F - 43.0 °F 86% 30.20 in 3.0 mi South 17.3 mph - N/A   Overcast
11:15 AM 47.3 °F - 43.2 °F 86% 30.19 in 4.0 mi South 13.8 mph - N/A   Overcast
11:35 AM 47.8 °F - 43.7 °F 86% 30.19 in 3.0 mi South 11.5 mph - N/A   Overcast
11:55 AM 48.2 °F - 43.9 °F 85% 30.18 in 4.0 mi South 12.7 mph - N/A   Overcast
12:15 PM 49.1 °F - 44.6 °F 84% 30.17 in 4.0 mi South 13.8 mph - N/A   Overcast
12:35 PM 49.6 °F - 44.6 °F 83% 30.16 in 5.0 mi South 16.1 mph - N/A   Haze
12:55 PM 50.0 °F - 45.0 °F 83% 30.15 in 5.0 mi South 16.1 mph - N/A   Haze
1:15 PM 50.9 °F - 45.3 °F 81% 30.14 in 5.0 mi South 16.1 mph 20.7 mph N/A   Haze
1:35 PM 51.8 °F - 46.4 °F 82% 30.13 in 7.0 mi South 17.3 mph - N/A   Mostly Cloudy
1:55 PM 51.8 °F - 46.4 °F 82% 30.13 in 5.0 mi South 17.3 mph - N/A   Haze
2:15 PM 52.2 °F - 45.9 °F 79% 30.12 in 7.0 mi South 17.3 mph - N/A   Clear
2:35 PM 53.2 °F - 46.4 °F 78% 30.12 in 7.0 mi South 17.3 mph - N/A   Clear
2:55 PM 53.6 °F - 46.4 °F 77% 30.12 in 10.0 mi South 13.8 mph 20.7 mph N/A   Clear
3:15 PM 53.6 °F - 46.4 °F 77% 30.11 in 10.0 mi South 16.1 mph 23.0 mph N/A   Clear
3:35 PM 53.1 °F - 46.4 °F 78% 30.11 in 10.0 mi South 15.0 mph 24.2 mph N/A   Clear
3:55 PM 52.7 °F - 46.6 °F 80% 30.10 in 10.0 mi South 19.6 mph - N/A   Clear
4:15 PM 52.3 °F - 46.4 °F 80% 30.10 in 10.0 mi South 17.3 mph - N/A   Clear
4:35 PM 51.8 °F - 46.4 °F 82% 30.09 in 10.0 mi South 16.1 mph 20.7 mph N/A   Clear
4:55 PM 51.3 °F - 45.9 °F 82% 30.09 in 10.0 mi South 15.0 mph - N/A   Clear
5:15 PM 50.4 °F - 45.5 °F 83% 30.09 in 10.0 mi South 16.1 mph - N/A   Clear
5:35 PM 50.0 °F - 45.5 °F 85% 30.09 in 7.0 mi South 18.4 mph - N/A   Clear
5:55 PM 49.3 °F - 45.1 °F 86% 30.09 in 7.0 mi South 18.4 mph - N/A   Clear
6:15 PM 48.6 °F - 44.8 °F 87% 30.09 in 7.0 mi South 16.1 mph - N/A   Clear
6:55 PM 48.2 °F - 45.0 °F 89% 30.09 in 7.0 mi South 16.1 mph - N/A   Scattered Clouds
7:15 PM 48.2 °F - 44.6 °F 87% 30.09 in 7.0 mi South 16.1 mph - N/A   Clear
7:35 PM 48.2 °F - 44.8 °F 88% 30.09 in 7.0 mi South 16.1 mph 23.0 mph N/A   Scattered Clouds
7:55 PM 48.2 °F - 44.8 °F 88% 30.08 in 7.0 mi South 19.6 mph 25.3 mph N/A   Scattered Clouds
8:15 PM 48.2 °F - 44.6 °F 87% 30.08 in 7.0 mi South 18.4 mph 24.2 mph N/A   Clear
8:35 PM 47.7 °F - 44.2 °F 88% 30.07 in 7.0 mi South 19.6 mph - N/A   Scattered Clouds
8:55 PM 47.3 °F - 43.9 °F 88% 30.07 in 7.0 mi South 18.4 mph 24.2 mph N/A   Clear
9:15 PM 47.3 °F - 43.9 °F 88% 30.07 in 7.0 mi SSW 18.4 mph - N/A   Clear
9:35 PM 47.1 °F - 43.7 °F 88% 30.07 in 7.0 mi South 16.1 mph - N/A   Clear
9:55 PM 46.9 °F - 43.3 °F 87% 30.06 in 7.0 mi SSW 17.3 mph - N/A   Clear
10:15 PM 47.1 °F - 43.3 °F 87% 30.06 in 7.0 mi South 17.3 mph - N/A   Clear
10:35 PM 46.8 °F - 43.2 °F 87% 30.06 in 5.0 mi South 17.3 mph - N/A   Clear
10:55 PM 46.4 °F 40.1 °F 42.8 °F 87% 30.06 in 5.0 mi South 15.0 mph 20.7 mph N/A   Clear
11:15 PM 46.8 °F - 42.8 °F 86% 30.05 in 7.0 mi South 16.1 mph 21.9 mph N/A   Clear
11:35 PM 46.0 °F 39.6 °F 42.3 °F 87% 30.05 in 5.0 mi South 15.0 mph - N/A   Clear
11:55 PM 46.8 °F - 42.8 °F 86% 30.04 in 7.0 mi SSW 15.0 mph - N/A   Clear